SCOUT G-1 DEB, 29362

Orbit data source: Space-Track

SCOUT G-1 DEB, 29362 is space debris in LEO originally from a launch on Tue, 26 Apr 1988 UTC launched from the Air Force Western Test Range (AFWTR). Debris objects in space refer to the collection of defunct objects orbiting the Earth. Examples of debris include non-operational satellites, rocket bodies, and fragments generated from explosions, collisions, or faulty payload assembly.

Loading next visibility...
Identifier
29362, 1988-033J
Orbit
LEO
Country
Flag of USUS
Related business
Manufacturer
Unknown
Mission
Spacecraft
Bus & Motor
Unknown
Mass
Unknown
Launch date (UTC)
1988-04-26 (38 years ago)
Launch vehicle
Unknown
Launch site
Air Force Western Test Range (AFWTR)
Object type
Payload
Rocket body
Debris
Shape & HBR
Unknown shape, 0.1 m
Radar Cross Section
Small (<0.1 m²)

Expand to show TLE details & history
Last TLE update: 3 days ago

TLE from 3 days ago
0 SCOUT G-1 DEB
1 29362U 88033J   26170.36004314  .00000590  00000-0  10696-2 0  9999
2 29362  90.2990  17.1427 0209881 303.5928 238.3426 13.32208552619659
Epoch: 2026-06-19T08:38Z
TLE epoch observation values (Epoch: 2026-06-19T08:38:27.727Z)
Latitude
-0.03008°
Longitude
159.93687°
Altitude
1,226.55 km
Speed
7.2 km/s
True Right ascension
13h 08m 34s
True Declination
0° 01' 48"
Sunlit
Object was in daylight at epoch
Visualization orbit readout
Latitude
Unknown
Longitude
Unknown
Altitude
Unknown
Speed
Unknown
Apparent Right ascension
Unknown
Apparent Declination
Unknown
Sunlit
N/A
Visualization observer readout
Local Sidereal Time
23:08:52
Azimuth
Unknown
Elevation
Unknown
Doppler factor
Unknown
Orbital elements
Apogee altitude
1,293.216 km
Perigee altitude
977.821 km
Semi-major axis
7,513.656 km
Eccentricity
0.02099
Inclination
90.299°
RAAN
17.1427°
Arg. of periapsis
303.5928°
True anomaly
236.32365°
Mean anomaly
238.3426°
Eccentric anomaly
237.33031°
Mean motion
3.33247 °/min
Orbital period
108.03 mins
BSTAR
0.0010696
Loading maneuver chart data...
Computing Atmospheric mass density...
Loading historical data...
Loading historical data...
Loading historical data...
Loading historical data...
Loading historical data...
Loading historical data...
Loading historical data...

Documentation

Showing up to 5 results
|